Temp
-10 -10 -11 -12 -12 -13 -13 -13 -13 -13 -12 -12 -12 -12 -11 -11 -10 -10 -9 -9 -8 -7 -7 -6 -6 -5 -4 -4 -3 -3 -3 -3 -3 -2 -2 -2 -2 -2 -2 -2 -2 -2 -2 -1 -0 0 1 1 2 2 2 2 2 2 2 2 2 2 2 2 2 2 3
-10 -11 -11 -12 -12 -13 -13 -13 -13 -13 -13 -13 -13 -12 -12 -11 -11 -11 -10 -10 -9 -8 -8 -7 -6 -6 -5 -4 -4 -4 -3 -3 -3 -3 -3 -3 -3 -2 -2 -2 -2 -2 -2 -2 -1 -0 0 1 1 1 1 1 1 1 1 1 1 1 1 2 2 2 2
-10 -11 -11 -12 -12 -13 -13 -14 -14 -14 -14 -14 -13 -13 -13 -12 -12 -12 -11 -10 -10 -9 -8 -7 -7 -6 -6 -5 -5 -4 -4 -4 -4 -3 -3 -3 -3 -3 -3 -2 -2 -2 -2 -2 -2 -1 -0 -0 -0 -0 -0 -0 -0 -0 0 0 0 1 1 1 1 1 1
-11 -11 -12 -12 -13 -13 -14 -14 -14 -14 -14 -14 -14 -13 -13 -13 -12 -12 -11 -10 -10 -9 -8 -8 -8 -7 -7 -6 -6 -6 -5 -5 -5 -5 -4 -4 -4 -4 -4 -3 -3 -3 -3 -3 -3 -2 -1 -1 -1 -1 -1 -1 -1 -1 -1 -1 -0 -0 -0 -0 0 0 1
-11 -12 -12 -13 -13 -13 -14 -14 -14 -15 -15 -14 -14 -13 -13 -13 -12 -11 -11 -10 -10 -9 -9 -9 -9 -9 -8 -8 -8 -8 -8 -7 -7 -6 -6 -6 -6 -5 -5 -4 -4 -4 -4 -4 -4 -3 -3 -3 -3 -3 -2 -2 -2 -2 -2 -2 -2 -1 -1 -1 -1 -1 -1
-12 -12 -12 -13 -14 -14 -14 -14 -15 -15 -15 -14 -14 -13 -13 -13 -12 -11 -11 -10 -10 -10 -10 -10 -10 -10 -10 -9 -9 -10 -9 -9 -9 -8 -8 -8 -7 -7 -7 -6 -6 -5 -5 -5 -5 -5 -4 -4 -4 -4 -4 -3 -3 -3 -3 -3 -3 -2 -2 -2 -2 -2 -2
-12 -12 -13 -13 -14 -14 -15 -15 -15 -15 -15 -14 -14 -13 -13 -12 -12 -12 -11 -11 -10 -10 -11 -11 -11 -11 -11 -11 -11 -11 -11 -10 -10 -10 -10 -10 -9 -9 -8 -8 -7 -7 -6 -6 -6 -6 -5 -5 -5 -5 -5 -4 -4 -4 -4 -4 -4 -4 -3 -3 -3 -3 -3
-12 -13 -13 -14 -14 -15 -15 -15 -15 -15 -15 -14 -14 -13 -13 -12 -12 -12 -11 -11 -11 -11 -11 -12 -12 -12 -12 -12 -12 -12 -12 -11 -11 -11 -11 -11 -10 -10 -10 -9 -9 -9 -8 -8 -8 -7 -7 -7 -6 -6 -6 -6 -5 -5 -5 -5 -5 -5 -5 -4 -4 -4 -4
-13 -13 -14 -14 -15 -15 -15 -15 -16 -16 -15 -15 -14 -13 -12 -12 -12 -12 -11 -11 -12 -12 -12 -12 -12 -12 -13 -13 -13 -12 -12 -12 -12 -12 -12 -12 -11 -11 -11 -10 -10 -10 -10 -10 -9 -9 -8 -8 -8 -7 -7 -7 -7 -7 -7 -6 -6 -6 -5 -5 -5 -5 -5
-13 -13 -14 -15 -15 -16 -16 -16 -16 -16 -15 -15 -14 -13 -12 -12 -12 -12 -12 -12 -12 -13 -13 -13 -13 -13 -13 -13 -13 -13 -13 -13 -13 -13 -13 -13 -12 -12 -12 -11 -11 -11 -11 -11 -11 -10 -10 -9 -9 -9 -9 -10 -10 -10 -9 -9 -8 -8 -7 -7 -6 -6 -5
-14 -14 -15 -15 -16 -16 -16 -16 -16 -16 -15 -15 -14 -13 -12 -13 -13 -13 -13 -13 -13 -13 -13 -14 -14 -14 -14 -14 -14 -14 -14 -14 -14 -13 -13 -13 -13 -13 -13 -13 -12 -12 -12 -12 -12 -11 -11 -11 -12 -12 -11 -11 -11 -11 -11 -10 -10 -10 -9 -8 -7 -7 -6
-14 -15 -15 -16 -16 -17 -17 -17 -17 -16 -16 -15 -13 -13 -13 -13 -13 -13 -13 -14 -14 -14 -14 -14 -15 -15 -15 -15 -15 -15 -15 -15 -15 -14 -14 -14 -14 -13 -13 -14 -14 -14 -14 -13 -13 -13 -13 -13 -13 -13 -13 -13 -13 -13 -12 -12 -11 -11 -11 -10 -9 -9 -8
-15 -16 -16 -17 -17 -17 -17 -17 -17 -16 -16 -15 -13 -13 -13 -14 -14 -14 -14 -14 -14 -14 -15 -15 -15 -15 -15 -15 -15 -15 -15 -15 -15 -15 -15 -15 -14 -14 -14 -14 -15 -15 -15 -15 -15 -15 -15 -15 -15 -15 -14 -14 -14 -14 -13 -13 -13 -13 -12 -12 -12 -11 -11
-16 -17 -17 -17 -18 -18 -17 -17 -17 -17 -16 -15 -14 -13 -14 -14 -14 -14 -14 -14 -15 -15 -15 -15 -15 -15 -16 -16 -15 -15 -15 -15 -16 -16 -16 -16 -15 -15 -15 -15 -16 -16 -16 -16 -16 -16 -16 -16 -16 -15 -15 -14 -15 -15 -14 -14 -14 -14 -13 -13 -13 -12 -12
-17 -18 -18 -18 -18 -18 -18 -17 -17 -17 -16 -15 -14 -14 -15 -15 -15 -15 -15 -15 -16 -16 -16 -16 -16 -16 -16 -16 -16 -16 -15 -16 -16 -16 -17 -17 -17 -16 -16 -17 -17 -18 -17 -17 -17 -17 -17 -17 -16 -16 -15 -16 -15 -15 -15 -15 -15 -14 -14 -14 -13 -12 -12
-18 -18 -18 -18 -18 -18 -18 -18 -17 -17 -16 -16 -15 -14 -15 -15 -15 -16 -16 -17 -17 -17 -17 -17 -17 -17 -17 -17 -16 -16 -16 -16 -17 -17 -17 -17 -18 -18 -18 -18 -18 -19 -19 -18 -18 -18 -18 -17 -17 -17 -16 -17 -17 -17 -16 -15 -15 -15 -14 -15 -14 -13 -13
-19 -19 -19 -18 -18 -18 -18 -18 -18 -17 -17 -16 -15 -15 -15 -16 -16 -16 -17 -18 -18 -18 -18 -18 -18 -18 -17 -17 -17 -16 -16 -17 -17 -17 -18 -18 -19 -19 -19 -19 -19 -19 -19 -19 -19 -19 -19 -19 -19 -18 -18 -18 -19 -18 -17 -16 -16 -17 -18 -18 -17 -15 -15
-19 -19 -19 -19 -18 -18 -18 -18 -18 -18 -17 -16 -15 -15 -16 -16 -16 -17 -18 -19 -19 -19 -19 -18 -18 -18 -18 -18 -17 -16 -17 -18 -18 -18 -19 -19 -20 -20 -20 -20 -21 -20 -20 -20 -20 -20 -20 -20 -20 -19 -19 -19 -20 -20 -19 -19 -20 -21 -21 -20 -19 -18 -18
-20 -19 -19 -19 -19 -18 -18 -18 -18 -18 -17 -16 -16 -16 -16 -16 -17 -18 -19 -19 -19 -19 -19 -19 -19 -19 -18 -18 -17 -17 -18 -19 -19 -19 -20 -20 -21 -21 -22 -22 -22 -22 -21 -21 -21 -21 -21 -21 -21 -20 -20 -20 -20 -21 -21 -21 -22 -22 -22 -22 -21 -21 -20
-20 -20 -19 -19 -19 -19 -18 -18 -18 -18 -17 -17 -16 -16 -17 -17 -18 -18 -19 -20 -20 -20 -20 -20 -20 -19 -19 -18 -18 -17 -18 -19 -20 -21 -21 -22 -22 -23 -23 -23 -23 -23 -23 -23 -23 -23 -22 -22 -22 -22 -22 -21 -21 -21 -22 -22 -23 -23 -23 -24 -23 -23 -22
-20 -20 -19 -19 -19 -19 -19 -19 -18 -18 -18 -17 -17 -17 -18 -18 -19 -19 -20 -20 -20 -21 -21 -21 -20 -20 -19 -19 -18 -18 -19 -20 -21 -21 -22 -22 -23 -24 -24 -24 -23 -23 -23 -23 -24 -24 -23 -24 -24 -24 -23 -23 -23 -23 -23 -23 -24 -24 -24 -24 -25 -25 -25
-20 -19 -19 -19 -19 -19 -19 -19 -19 -18 -18 -17 -17 -18 -19 -19 -20 -20 -20 -20 -21 -21 -22 -21 -21 -20 -20 -19 -19 -20 -20 -21 -22 -22 -23 -23 -24 -24 -24 -24 -24 -24 -24 -24 -24 -25 -25 -25 -25 -25 -26 -25 -25 -25 -25 -25 -25 -25 -25 -25 -25 -26 -26
-20 -19 -19 -19 -19 -19 -19 -19 -19 -18 -18 -18 -18 -18 -19 -20 -21 -20 -20 -21 -21 -22 -22 -22 -21 -21 -20 -20 -20 -21 -22 -22 -23 -24 -24 -24 -25 -25 -25 -25 -25 -25 -25 -25 -25 -26 -27 -27 -27 -28 -28 -27 -27 -27 -26 -26 -26 -25 -25 -25 -25 -25 -26
-20 -19 -19 -20 -20 -20 -20 -20 -19 -19 -19 -19 -19 -19 -20 -21 -21 -21 -21 -22 -22 -23 -23 -23 -22 -22 -22 -22 -22 -23 -24 -24 -25 -25 -26 -26 -26 -26 -26 -26 -26 -26 -26 -26 -27 -28 -28 -29 -29 -29 -29 -29 -28 -28 -27 -26 -26 -26 -26 -26 -25 -25 -25
-20 -19 -19 -20 -20 -20 -20 -20 -20 -20 -19 -19 -20 -20 -21 -22 -22 -22 -22 -23 -23 -23 -23 -23 -23 -23 -24 -24 -24 -25 -25 -25 -26 -26 -27 -27 -27 -27 -27 -27 -27 -27 -27 -28 -29 -29 -29 -29 -29 -29 -29 -29 -29 -28 -27 -27 -27 -26 -26 -26 -26 -25 -25
-20 -19 -20 -20 -20 -20 -21 -21 -21 -20 -20 -20 -20 -21 -22 -22 -22 -23 -23 -24 -24 -24 -24 -24 -24 -25 -25 -25 -25 -25 -26 -26 -27 -27 -28 -28 -28 -28 -28 -28 -28 -28 -28 -29 -29 -30 -29 -29 -29 -29 -29 -29 -29 -29 -29 -29 -28 -28 -27 -27 -27 -27 -26
-20 -20 -20 -20 -20 -21 -21 -21 -21 -21 -21 -21 -21 -21 -22 -22 -23 -23 -23 -24 -25 -25 -25 -25 -25 -26 -26 -26 -26 -26 -27 -27 -28 -28 -28 -29 -29 -29 -29 -29 -29 -29 -29 -30 -30 -30 -30 -30 -30 -29 -29 -30 -30 -30 -30 -30 -30 -29 -29 -29 -29 -29 -29
-20 -20 -20 -20 -21 -21 -21 -21 -21 -21 -21 -21 -21 -22 -22 -23 -23 -23 -24 -25 -25 -25 -26 -26 -26 -27 -27 -27 -27 -27 -27 -28 -28 -28 -29 -29 -29 -29 -29 -29 -29 -29 -30 -30 -30 -30 -30 -30 -30 -30 -30 -30 -30 -30 -30 -30 -30 -30 -30 -30 -30 -30 -30
-20 -20 -20 -21 -21 -21 -21 -22 -21 -21 -21 -21 -22 -22 -23 -23 -24 -24 -25 -25 -26 -26 -26 -26 -27 -27 -27 -27 -27 -27 -28 -28 -29 -29 -29 -29 -30 -30 -30 -30 -30 -30 -30 -30 -30 -30 -30 -30 -30 -30 -31 -31 -31 -31 -31 -31 -30 -30 -31 -31 -31 -31 -31
-20 -20 -21 -21 -21 -22 -22 -22 -22 -21 -21 -21 -21 -22 -23 -24 -24 -24 -25 -26 -26 -26 -26 -26 -26 -27 -27 -27 -27 -28 -28 -29 -29 -29 -30 -30 -30 -30 -30 -30 -30 -31 -31 -31 -31 -31 -31 -31 -31 -31 -31 -31 -31 -31 -31 -31 -31 -31 -31 -31 -31 -31 -31
-20 -21 -21 -22 -22 -22 -23 -23 -22 -21 -20 -20 -21 -22 -22 -23 -24 -25 -25 -26 -26 -26 -26 -26 -27 -27 -28 -28 -28 -29 -29 -29 -30 -30 -30 -30 -30 -30 -30 -31 -31 -31 -31 -31 -31 -31 -31 -31 -31 -31 -31 -31 -31 -32 -32 -31 -31 -31 -31 -32 -32 -32 -32
-21 -21 -22 -22 -22 -22 -23 -22 -22 -21 -21 -21 -22 -22 -22 -23 -24 -25 -25 -26 -26 -26 -26 -27 -27 -28 -28 -28 -28 -29 -30 -30 -30 -30 -30 -30 -30 -30 -31 -31 -31 -31 -31 -31 -31 -31 -31 -31 -32 -32 -32 -32 -32 -32 -32 -32 -32 -32 -32 -32 -32 -32 -32
-22 -22 -22 -22 -22 -22 -22 -23 -22 -22 -22 -22 -23 -23 -23 -24 -25 -25 -25 -26 -26 -26 -27 -27 -28 -28 -28 -28 -28 -29 -30 -30 -30 -30 -30 -30 -30 -30 -31 -31 -31 -31 -31 -31 -31 -31 -31 -32 -32 -32 -32 -32 -32 -32 -32 -32 -32 -32 -32 -32 -32 -32 -32
-22 -22 -22 -23 -23 -23 -23 -23 -23 -23 -23 -23 -24 -24 -24 -25 -26 -26 -25 -26 -27 -27 -27 -27 -28 -27 -28 -28 -29 -29 -29 -30 -30 -30 -30 -30 -30 -30 -30 -31 -31 -31 -31 -31 -31 -31 -31 -32 -32 -32 -32 -32 -32 -32 -32 -32 -32 -32 -33 -33 -33 -33 -32
-23 -24 -24 -24 -24 -24 -24 -24 -24 -24 -24 -25 -25 -25 -25 -26 -26 -26 -26 -27 -27 -28 -28 -28 -27 -27 -28 -28 -29 -29 -29 -29 -29 -30 -30 -30 -30 -30 -30 -30 -30 -31 -31 -31 -31 -31 -31 -31 -31 -32 -32 -32 -32 -32 -32 -32 -33 -33 -33 -33 -33 -33 -33
-24 -24 -25 -25 -25 -25 -25 -25 -25 -25 -25 -25 -26 -26 -26 -26 -26 -26 -26 -27 -28 -28 -28 -28 -28 -28 -28 -28 -28 -29 -29 -29 -29 -29 -30 -30 -30 -30 -30 -30 -30 -31 -31 -31 -31 -31 -31 -31 -31 -32 -32 -32 -32 -32 -32 -32 -33 -33 -33 -33 -33 -33 -33
Height
811 810 809 807 806 805 803 802 800 799 797 795 793 791 789 788 786 784 782 780 778 776 775 773 771 770 768 768 767 766 766 766 766 767 768 769 770 770 771 772 773 772 770 771 772 773 774 775 775 775 775 776 777 778 779 779 780 781 782 783 784 785 786
809 808 807 806 804 803 802 801 799 798 796 794 792 790 789 787 785 783 781 779 777 775 774 772 770 768 767 766 765 765 764 764 764 764 765 766 767 767 768 769 770 770 769 769 770 771 772 773 773 773 774 775 776 776 777 778 779 780 780 781 781 782 782
806 806 805 804 802 801 800 799 798 796 795 793 791 789 788 786 785 783 780 778 776 774 772 771 769 767 766 765 764 763 763 762 762 762 763 763 764 764 765 766 767 767 767 767 768 769 770 771 771 772 772 773 774 775 776 776 777 778 778 779 779 779 779
804 803 802 801 800 799 798 797 796 794 793 792 790 788 787 785 784 782 780 778 776 773 771 769 768 766 765 764 763 762 762 761 761 761 761 761 762 762 763 763 764 765 765 766 766 767 768 769 769 770 771 771 772 773 774 775 775 776 776 777 777 777 777
802 801 800 799 798 797 795 795 794 792 791 790 788 787 785 784 782 781 779 777 775 773 771 769 767 766 765 763 763 762 761 761 760 760 760 760 760 760 761 761 762 763 763 764 765 766 767 767 768 769 769 771 771 772 773 773 774 774 774 775 775 775 775
800 799 798 797 796 795 793 792 792 791 789 788 786 785 784 783 781 779 778 776 775 773 771 769 767 766 765 764 763 762 762 761 761 760 760 760 760 760 760 760 760 761 762 762 763 764 765 766 767 767 768 769 770 771 771 771 772 772 772 772 772 772 773
798 797 796 795 794 793 791 790 789 789 787 786 784 783 782 781 780 778 777 775 774 772 771 769 767 766 765 765 764 763 762 762 761 761 760 760 760 760 760 760 760 760 760 761 762 762 763 764 765 765 766 767 768 769 769 770 770 769 769 770 770 770 770
796 795 794 793 792 791 789 787 787 787 785 784 783 781 780 779 778 776 775 774 773 771 770 769 768 766 766 765 765 764 763 762 762 761 761 760 760 760 760 760 760 760 760 760 761 761 762 763 763 764 765 765 766 767 767 768 768 767 767 767 768 767 768
794 792 791 791 790 788 787 785 785 785 784 783 781 780 778 777 775 774 773 773 772 771 770 769 768 767 766 766 765 764 764 763 762 762 761 761 761 760 760 760 760 760 760 760 761 761 762 762 763 764 764 765 766 766 766 766 766 765 765 765 765 764 765
792 790 789 788 787 786 784 783 783 783 782 781 780 779 777 775 774 773 772 771 771 770 769 768 768 767 767 766 766 765 764 764 763 762 762 762 761 761 761 760 760 760 760 761 762 762 762 763 764 765 765 766 766 766 765 765 765 765 764 764 763 762 762
789 788 787 786 785 784 782 782 781 781 781 780 779 777 775 774 773 772 771 771 770 770 769 768 768 767 767 767 766 765 764 764 763 763 763 763 762 762 762 761 761 761 761 761 762 763 763 764 765 766 766 766 766 765 765 765 765 765 764 764 763 761 761
786 786 785 784 783 782 780 780 780 780 779 779 778 776 773 772 772 771 771 771 770 769 769 768 768 767 767 767 766 765 764 764 763 763 763 763 763 762 762 762 762 762 762 763 763 764 765 766 766 767 767 767 766 766 765 765 765 765 764 764 763 762 761
784 783 783 782 781 780 779 778 778 778 778 777 776 774 772 771 771 771 770 770 769 769 769 768 768 767 767 767 766 765 765 764 764 763 763 763 763 763 763 763 763 763 763 764 764 765 766 766 767 767 767 767 767 766 765 764 764 764 764 764 763 762 761
782 781 781 780 779 778 777 777 777 777 777 776 775 773 771 771 771 770 770 769 769 768 768 768 767 767 767 766 766 765 765 765 764 763 763 763 763 763 763 763 763 763 764 764 765 766 766 767 767 767 766 766 765 765 764 764 763 763 763 762 761 760 759
780 780 779 778 778 776 776 776 776 776 776 775 774 772 771 770 770 769 769 768 768 767 767 767 767 767 767 767 766 766 765 764 763 763 764 764 764 764 763 763 764 765 765 765 765 766 766 767 767 766 766 765 764 763 763 763 763 762 761 760 758 757 757
779 778 777 777 776 775 775 775 775 775 774 773 773 771 770 769 769 768 768 767 767 767 767 767 767 767 767 767 766 766 765 763 763 763 763 764 764 764 764 764 764 765 766 766 766 766 766 766 766 765 765 764 762 761 761 761 761 761 760 758 757 755 755
777 777 776 775 775 774 774 774 774 773 773 772 771 770 769 768 768 768 768 768 768 768 768 768 767 767 767 767 766 766 765 763 762 763 763 763 763 763 763 763 764 764 765 765 765 765 765 765 764 763 763 763 761 760 759 759 759 760 759 758 757 755 754
775 775 774 774 774 773 773 773 773 772 772 771 770 768 768 767 767 767 768 768 768 768 768 768 768 767 767 767 767 766 764 762 762 763 763 762 762 762 762 762 762 762 763 763 763 763 762 762 761 761 761 761 760 759 758 758 759 760 759 758 758 757 755
774 773 773 773 773 772 772 772 772 771 771 770 769 767 767 767 767 767 768 768 768 768 768 768 768 767 767 767 767 766 764 763 762 762 762 762 761 761 762 762 762 761 761 761 761 760 760 760 760 760 759 759 759 758 758 758 759 759 758 758 759 758 756
772 771 771 771 771 771 771 771 771 771 771 769 768 766 766 766 766 767 768 768 768 768 768 768 768 767 767 767 767 767 766 764 763 763 763 762 762 762 762 762 762 761 761 761 760 760 760 760 759 759 759 759 758 758 758 758 758 758 758 759 759 758 758
771 770 770 770 770 770 770 771 771 771 770 769 768 766 766 766 767 767 768 768 768 768 767 767 767 767 767 767 767 767 766 766 765 764 764 764 764 764 763 762 762 762 761 761 761 761 760 760 759 759 759 759 758 758 758 759 759 759 759 759 759 758 758
770 770 769 769 769 769 770 770 770 770 770 769 768 767 766 766 767 767 768 768 767 767 767 767 767 767 767 768 767 767 767 766 766 765 765 766 765 764 763 762 762 762 761 761 761 761 760 760 759 759 759 758 758 758 758 758 758 758 759 759 759 759 759
770 769 768 769 769 769 770 770 770 770 770 770 769 768 767 767 767 767 767 767 767 767 767 767 767 767 768 768 767 767 767 767 766 766 766 766 765 764 763 763 762 762 761 761 761 761 760 760 760 760 759 759 759 758 758 757 757 757 757 757 757 758 758
769 769 768 768 769 769 770 770 770 770 770 770 770 769 768 768 767 767 767 766 767 767 767 768 768 768 768 768 767 767 767 766 766 766 765 764 764 763 763 762 762 762 761 761 761 761 761 761 761 761 760 760 759 759 758 757 757 756 756 755 755 755 756
769 769 768 768 769 770 770 770 770 770 770 770 769 769 768 768 767 766 766 766 766 767 767 767 767 767 767 766 766 766 765 765 765 765 765 764 764 763 763 762 762 762 762 761 762 762 762 762 762 761 761 760 760 758 757 756 755 754 753 753 752 752 753
769 769 769 769 769 770 770 770 770 770 770 769 769 768 768 767 767 766 766 766 766 767 767 766 766 766 766 766 766 765 765 765 765 765 765 765 764 764 763 763 763 762 762 762 763 763 763 763 762 762 761 760 759 757 756 754 753 752 751 750 749 749 749
769 769 769 769 770 770 770 770 769 769 769 769 769 768 768 767 767 766 766 766 766 766 766 766 766 766 766 766 766 766 766 766 766 766 765 765 765 764 764 764 764 763 763 763 764 764 763 763 763 761 760 759 758 757 756 755 753 751 750 749 747 746 746
769 769 769 769 769 769 769 769 769 769 769 768 768 768 767 767 767 766 766 766 766 766 767 767 767 767 767 767 767 767 767 767 766 766 766 765 765 765 764 764 764 764 764 764 764 764 763 763 762 761 760 759 758 757 756 755 753 752 750 749 747 746 745
768 768 768 769 769 769 768 768 768 768 768 768 768 768 767 767 767 766 766 766 766 767 767 767 767 767 767 767 767 767 767 767 767 766 766 766 766 765 765 765 764 764 764 764 764 764 763 763 762 761 760 759 758 757 757 755 754 753 752 751 749 748 747
767 767 768 769 768 768 768 767 767 767 767 767 767 767 767 767 766 766 766 766 767 767 767 767 767 767 767 767 767 767 767 767 767 767 766 766 766 765 765 765 765 765 765 765 765 764 764 764 763 762 761 760 759 758 757 756 755 754 753 752 751 750 749
767 767 768 768 768 768 767 767 767 767 767 767 768 768 768 767 767 767 767 767 767 767 767 767 767 767 768 768 767 767 768 768 768 768 767 767 767 766 766 766 766 766 766 766 765 765 764 764 763 762 762 761 760 759 758 757 756 755 753 752 751 750 749
767 767 768 768 768 768 767 767 767 768 768 768 768 768 769 768 768 767 767 767 767 767 767 767 767 767 768 768 768 768 768 768 768 768 768 768 768 767 767 767 767 767 767 766 766 766 765 764 764 763 762 761 760 759 758 756 755 754 753 752 751 750 749
767 767 767 768 768 768 768 768 768 768 768 768 768 768 768 768 768 767 767 767 767 767 767 767 767 767 768 768 768 768 769 769 769 769 769 769 769 768 768 768 768 768 768 767 766 766 765 764 763 762 762 761 760 759 758 756 755 754 753 752 751 750 749
767 767 767 767 767 767 767 767 767 768 767 768 768 768 768 767 767 767 767 767 767 767 767 767 767 767 767 768 768 768 769 769 769 769 769 769 769 769 769 768 768 767 767 766 766 765 764 763 762 762 761 760 759 758 757 757 756 754 753 752 751 750 749
766 766 766 766 766 766 766 766 766 766 766 766 767 767 767 767 766 766 767 767 767 767 767 767 767 767 767 768 768 768 769 769 769 769 769 768 768 768 768 767 767 766 766 765 764 764 763 762 761 760 760 759 758 757 756 755 755 753 752 752 750 749 748
764 764 765 765 764 764 764 764 765 765 766 766 766 766 766 766 766 766 766 766 767 767 767 767 767 767 767 768 768 768 768 768 768 768 768 767 767 767 766 766 765 764 764 763 762 762 761 760 760 759 758 758 757 756 755 754 753 752 751 750 749 748 746
Wind_Speed
20 21 22 23 24 24 23 22 21 22 23 25 25 24 22 19 17 17 17 18 19 18 16 16 16 14 12 10 11 14 18 21 24 25 26 27 26 26 26 25 20 13 11 14 17 18 18 17 17 18 18 16 15 15 18 21 23 24 26 28 30 31 32
19 20 21 23 23 23 23 22 22 22 23 24 25 24 20 18 18 19 19 19 19 19 18 16 15 14 13 12 10 9 9 11 15 17 21 23 24 25 26 25 23 19 13 13 16 19 19 17 14 12 11 10 9 10 10 12 14 15 18 20 22 24 26
17 19 20 22 22 22 22 23 23 23 24 24 24 22 20 19 19 19 19 19 19 19 17 14 11 9 9 10 10 9 7 7 7 9 11 13 15 17 19 19 20 20 15 11 12 15 16 15 13 11 10 10 10 11 12 13 14 14 16 17 19 21 23
17 18 19 20 21 22 22 23 24 24 25 24 23 21 19 18 19 18 18 18 18 15 11 7 5 5 4 4 3 3 4 4 4 4 5 5 6 8 9 10 11 12 10 8 8 9 10 11 11 10 10 10 10 11 11 13 14 15 16 17 18 20 22
17 17 18 19 20 21 22 23 24 25 26 25 22 20 17 16 16 17 17 17 13 8 5 4 5 6 5 3 4 4 4 3 2 1 0 1 1 3 4 6 7 8 8 7 7 8 9 9 10 10 10 11 11 12 13 14 14 15 15 16 17 18 19
17 17 18 18 19 20 21 22 23 24 25 24 21 17 14 13 14 16 17 16 10 6 5 6 7 7 8 8 8 9 9 8 7 7 6 5 4 3 1 2 3 4 6 7 7 8 9 10 11 12 12 13 13 14 15 16 18 19 19 19 20 20 20
17 17 18 18 19 20 20 21 22 23 23 21 18 14 13 13 14 16 16 12 8 5 4 6 6 6 8 9 10 11 11 11 10 10 9 9 8 7 6 5 4 3 2 2 2 2 4 6 7 9 10 10 10 12 13 13 15 18 21 21 21 22 22
18 18 18 18 19 19 18 18 19 21 20 18 14 12 13 16 18 19 17 9 4 3 3 4 5 6 7 8 9 10 10 11 11 11 11 11 10 9 9 9 9 8 7 6 6 6 5 4 3 3 5 5 7 10 12 12 13 16 18 18 18 20 21
18 18 18 19 19 17 16 16 17 18 17 14 12 13 16 18 17 15 13 8 3 1 1 2 4 5 7 7 8 8 8 9 10 10 11 11 11 10 10 10 10 11 11 10 9 9 9 8 8 9 8 6 6 7 9 10 10 13 16 16 18 21 20
17 18 19 19 18 16 14 14 15 16 14 13 14 17 17 13 7 5 5 4 2 0 1 1 3 4 6 6 7 7 8 9 9 9 10 10 11 12 13 12 11 11 12 11 9 9 10 9 9 11 12 11 11 12 11 10 10 11 12 12 14 18 19
18 18 18 17 16 15 13 13 14 14 14 13 15 17 13 7 3 1 1 2 2 1 2 2 3 5 6 7 7 8 9 10 9 8 8 9 10 12 14 15 14 12 12 11 9 10 11 11 10 12 13 13 13 14 13 12 11 11 12 10 9 11 12
17 16 15 14 14 13 12 12 13 13 13 13 13 12 7 4 2 1 2 4 4 1 2 2 3 4 6 7 8 9 10 10 8 7 7 8 9 10 12 15 16 15 14 13 11 11 12 12 10 11 12 13 14 14 13 12 11 11 11 11 9 9 10
16 15 14 13 13 12 11 11 11 12 11 12 13 9 3 1 2 3 3 5 5 2 2 2 2 3 5 6 6 8 11 11 9 8 7 6 6 7 9 11 13 14 14 14 13 12 12 13 11 11 12 12 12 12 12 11 12 13 12 12 11 13 16
14 14 13 13 13 12 10 10 10 10 10 11 12 7 1 2 3 2 2 3 2 1 4 3 2 3 5 6 6 9 11 9 6 7 8 6 5 6 7 8 11 12 12 12 13 12 12 12 12 11 11 11 11 10 9 10 12 14 14 15 16 18 23
13 13 13 13 13 10 9 9 9 9 10 11 11 5 2 4 2 2 1 2 4 6 7 6 4 4 5 6 7 12 12 6 5 7 7 6 6 6 6 7 11 13 13 11 10 10 10 10 11 11 11 12 10 7 7 8 9 11 14 18 21 22 24
12 12 13 12 10 8 8 8 8 9 10 10 11 7 3 2 0 3 5 8 10 10 9 7 6 5 6 7 9 12 9 5 6 8 6 6 7 6 5 6 7 9 11 10 9 9 9 9 9 9 10 13 11 8 8 8 8 10 13 16 18 19 19
11 12 11 10 7 6 7 7 7 9 9 9 12 9 3 2 2 5 9 11 11 9 8 7 6 6 6 8 10 10 7 5 7 8 6 6 6 6 5 6 6 6 8 8 7 7 8 7 6 4 5 9 10 9 9 7 7 10 12 12 10 11 14
12 12 10 7 6 6 6 6 7 8 8 10 12 7 3 4 5 8 10 10 9 6 5 5 5 6 7 9 9 7 6 7 8 6 6 6 5 6 7 9 11 11 10 8 6 5 4 4 5 4 4 6 8 9 10 9 9 11 10 9 7 8 13
12 12 10 8 7 6 6 7 8 7 8 11 9 3 4 5 7 9 9 6 5 4 4 5 5 5 6 8 7 5 8 10 8 5 6 6 6 7 9 10 12 12 11 10 8 8 7 7 8 7 6 7 7 9 11 12 11 11 11 10 9 10 12
11 11 9 7 7 6 6 7 7 7 10 10 3 4 5 6 8 7 6 5 5 5 5 6 5 4 6 7 6 5 8 11 10 8 8 8 9 10 8 8 9 9 9 10 10 10 11 11 11 10 9 9 8 9 11 12 11 11 11 10 10 12 11
8 8 7 5 5 4 4 5 5 5 9 8 4 6 4 6 8 6 5 5 6 7 6 6 6 7 7 7 7 7 8 10 11 12 11 12 12 9 5 5 6 7 7 9 10 11 12 13 14 14 14 14 13 13 13 12 12 11 10 10 10 12 13
5 5 6 4 1 3 6 3 2 4 7 7 8 7 4 6 7 6 6 7 7 7 6 7 8 9 8 7 8 9 10 11 12 13 13 13 12 8 5 6 7 8 8 10 12 13 15 17 18 18 18 18 18 17 16 14 13 12 11 9 9 9 11
4 6 5 1 5 7 7 3 1 3 4 5 9 9 9 9 7 7 9 9 6 6 7 8 10 10 8 8 10 12 12 13 13 13 13 11 10 9 8 8 9 10 11 12 14 16 19 20 20 20 20 21 20 18 16 15 14 13 12 12 11 10 11
5 5 1 6 9 7 4 2 1 3 1 2 6 9 10 9 8 9 10 7 5 8 9 9 10 10 10 10 11 11 10 11 13 12 11 9 9 9 9 10 11 12 13 15 17 19 20 19 19 18 19 19 18 17 16 15 15 14 14 15 14 13 13
3 1 4 8 9 6 4 2 2 3 1 2 1 6 8 8 10 10 8 5 6 10 10 10 9 8 7 6 6 6 7 8 10 9 9 8 8 9 11 12 12 13 14 16 18 18 18 17 16 16 16 17 16 16 16 17 17 17 17 18 18 16 16
2 2 5 8 7 5 4 3 1 2 2 2 4 5 6 8 10 9 6 4 6 9 8 6 5 3 3 4 5 6 7 8 8 8 8 8 8 10 12 12 13 14 15 16 16 15 15 14 13 13 14 16 17 18 20 21 21 21 22 23 22 21 20
1 1 4 5 5 4 4 2 1 1 1 2 4 5 7 8 9 7 4 3 6 6 5 4 4 4 5 7 7 8 8 9 8 8 8 9 9 10 12 12 12 13 14 14 13 13 13 12 12 13 16 18 19 20 21 22 22 23 24 25 25 24 24
2 1 2 3 3 3 4 3 3 3 3 3 2 2 5 6 6 5 2 3 5 5 4 5 6 6 7 7 8 10 10 10 10 10 10 11 10 10 10 10 9 11 12 12 12 13 12 12 13 15 17 19 19 20 21 21 21 22 23 24 25 24 24
6 6 4 4 4 4 5 5 4 4 5 5 2 2 5 4 4 4 3 3 3 3 4 6 7 8 8 8 9 11 12 12 12 12 11 11 11 11 10 10 10 11 12 12 12 13 13 13 15 16 17 18 19 19 20 20 20 21 21 22 22 21 22
8 6 3 2 3 4 5 4 4 3 3 4 4 2 4 4 3 4 2 3 3 3 5 7 8 8 8 9 10 11 12 12 11 11 12 12 12 12 11 11 11 11 11 10 12 13 12 12 14 16 17 18 18 19 20 19 19 19 19 20 20 19 20
0 3 3 0 1 2 2 1 4 2 2 3 6 3 3 5 3 2 1 3 3 4 6 7 8 9 9 8 9 10 10 10 10 10 10 10 11 11 11 10 10 10 9 9 11 11 11 11 13 15 16 16 16 18 19 20 19 18 18 18 18 18 18
5 5 4 3 2 2 1 3 6 4 4 4 4 2 3 5 4 2 1 1 3 5 7 7 8 9 8 7 8 8 8 7 8 8 8 8 9 10 9 8 8 8 8 9 10 10 10 10 11 13 15 15 15 16 19 20 20 19 18 18 18 18 18
1 1 2 2 3 3 4 5 5 3 3 3 3 1 4 5 3 3 2 1 3 6 7 8 7 7 7 6 6 6 5 5 5 5 5 6 7 7 7 6 6 5 6 8 9 9 9 9 10 12 13 14 14 15 17 19 19 19 18 18 17 18 18
7 7 6 4 4 4 4 5 5 4 4 4 3 2 3 5 5 3 1 2 4 5 6 7 6 6 6 5 4 4 3 3 3 3 4 4 4 5 5 5 4 5 6 7 9 9 9 9 10 11 12 12 13 14 15 17 18 18 17 17 17 17 18
8 8 7 7 7 7 7 7 8 7 6 6 5 6 7 8 7 4 2 2 4 4 4 4 4 4 4 3 2 2 1 1 1 2 3 3 4 4 5 5 5 5 6 7 9 9 9 10 10 10 10 11 13 14 15 17 18 18 17 16 17 17 18
7 6 6 6 6 6 5 5 5 4 3 3 4 6 9 12 11 8 5 4 4 4 3 3 3 3 2 2 2 1 1 1 2 2 3 3 5 6 6 6 7 7 8 9 9 9 10 10 10 11 11 12 13 14 15 16 18 18 17 17 17 17 18
Wind_Direction
345 342 337 333 333 333 333 332 331 330 328 327 327 328 328 327 327 326 327 326 320 318 319 315 309 300 288 277 263 253 249 247 245 243 241 239 237 235 235 234 231 239 253 248 245 246 249 253 252 246 244 246 246 247 250 253 256 258 260 261 262 262 262
343 341 336 332 330 329 328 328 328 327 326 324 325 326 325 322 322 322 322 322 318 317 320 318 312 303 293 287 279 265 251 244 240 238 238 237 236 236 236 234 231 234 245 248 243 241 243 244 238 233 237 245 248 250 252 256 260 262 264 266 267 268 267
340 338 335 331 328 326 324 324 324 323 322 322 321 321 318 315 316 317 316 317 317 317 318 314 308 306 298 288 281 274 263 254 243 233 231 230 230 232 235 233 231 232 238 243 237 233 232 233 234 241 252 258 261 263 262 262 263 263 263 265 267 269 269
337 336 332 329 326 324 321 320 320 319 319 319 319 316 313 312 311 311 313 318 320 320 319 318 324 330 319 288 275 277 271 266 260 246 233 224 221 223 226 227 226 230 236 234 225 224 227 231 240 248 250 253 258 260 260 260 261 261 261 260 261 264 266
333 333 329 325 322 319 318 318 317 315 316 318 317 312 309 310 307 308 312 315 318 326 345 10 23 29 40 62 69 57 49 50 49 53 85 208 232 233 231 230 231 237 244 240 230 228 228 232 242 249 250 252 258 263 265 264 263 265 267 266 264 263 265
331 330 326 321 318 315 315 315 313 312 314 316 315 310 306 304 299 304 311 308 306 328 14 39 43 44 49 55 57 53 49 50 51 53 50 43 35 24 339 261 244 242 244 247 244 236 234 238 246 256 260 262 267 271 272 272 272 272 271 271 270 268 268
328 327 322 317 313 311 312 313 310 311 313 313 310 302 298 298 296 301 305 300 293 313 7 48 49 42 41 40 41 38 35 35 37 39 40 36 34 32 28 29 21 1 322 300 296 264 251 251 252 258 266 270 274 275 275 276 277 276 274 274 276 276 274
325 322 319 314 310 308 310 311 310 311 312 309 304 301 300 302 303 300 294 285 286 314 359 42 44 43 39 34 33 32 31 31 29 31 34 30 29 32 34 35 32 27 27 28 31 36 29 22 10 330 301 285 278 278 282 282 277 273 274 277 279 280 279
321 319 316 313 308 306 309 310 311 312 311 304 302 306 305 301 299 290 272 254 253 311 18 41 36 39 37 35 37 37 38 39 35 36 37 32 31 34 36 37 36 32 30 32 35 34 31 39 40 31 26 18 351 330 319 311 296 283 281 282 281 279 279
317 316 315 310 306 306 308 309 312 312 307 298 296 299 298 291 284 267 235 223 234 213 135 80 51 47 42 41 44 48 52 53 50 51 51 48 48 47 44 41 40 37 35 36 37 30 29 40 40 33 34 31 17 8 1 356 347 326 313 308 292 282 282
314 313 311 306 304 306 307 310 314 313 305 296 294 295 289 268 242 233 53 21 14 92 145 101 68 56 51 51 53 56 60 60 60 61 62 62 65 65 57 50 47 46 44 45 47 40 39 44 37 29 29 23 12 6 0 357 355 346 341 340 318 296 297
310 309 308 303 302 304 307 311 314 311 301 295 298 296 273 216 203 319 358 356 355 355 172 127 73 53 51 53 55 53 49 46 44 47 55 61 67 72 66 58 54 53 53 53 54 50 43 39 33 25 20 14 6 356 349 349 349 344 344 341 324 311 310
306 305 304 303 303 304 306 312 313 308 300 296 299 293 241 176 342 332 320 327 335 324 193 150 52 30 35 35 45 52 42 31 20 18 24 39 55 58 56 57 57 58 59 55 52 48 38 32 29 20 8 3 360 351 345 345 338 334 336 327 312 305 301
304 303 303 304 306 304 304 311 314 307 298 297 299 292 241 351 329 285 281 309 319 212 165 138 45 20 26 26 40 43 32 23 17 16 15 18 35 35 31 43 49 49 50 48 45 44 34 25 23 15 3 359 359 355 348 341 331 328 325 313 302 298 299
301 302 303 305 306 301 298 307 310 304 298 298 299 298 350 351 324 170 137 100 125 138 133 113 89 76 50 38 36 24 18 30 48 30 22 23 27 17 12 36 44 39 35 34 35 34 27 24 24 22 21 16 2 340 331 328 319 313 308 305 305 302 300
299 299 301 305 306 298 295 300 304 305 301 298 298 299 318 345 262 148 122 117 122 122 113 98 88 76 55 41 27 14 19 57 46 22 18 23 24 14 7 29 39 34 30 28 30 33 33 34 33 31 35 29 8 334 315 306 298 302 306 311 311 303 301
298 298 302 307 307 299 295 296 307 315 307 301 303 297 260 179 154 135 124 120 117 112 104 90 66 50 45 39 26 22 38 45 14 9 16 16 17 14 5 7 2 359 10 16 26 42 46 43 35 28 36 30 15 354 334 321 328 337 333 328 318 301 304
301 299 297 295 295 299 294 289 307 322 316 311 312 296 196 167 154 136 127 121 112 97 82 65 39 32 45 40 26 31 48 24 1 5 26 28 28 21 12 5 356 353 360 5 15 39 45 35 26 21 28 29 22 14 12 24 31 16 359 350 336 317 316
304 299 289 277 280 286 276 276 297 318 322 323 319 280 182 167 154 137 124 111 94 72 47 35 23 31 50 38 22 43 59 42 29 36 45 42 33 21 17 10 360 358 6 14 22 30 31 31 31 28 28 28 23 21 26 36 38 27 17 7 347 332 328
306 299 289 277 277 271 257 267 283 308 330 337 332 184 167 149 140 126 109 82 50 38 37 37 38 59 64 46 35 57 65 57 58 65 60 51 41 32 22 4 1 12 22 29 39 41 39 40 39 36 36 33 29 26 25 26 26 22 19 10 350 340 336
311 304 298 293 286 257 220 244 270 309 341 1 90 138 136 124 118 93 63 41 27 28 37 45 60 75 69 58 60 70 69 65 67 70 68 63 59 55 34 3 20 40 44 48 54 51 46 44 41 39 37 34 30 27 22 21 21 17 14 9 355 343 333
320 318 321 328 292 184 169 190 272 327 354 27 82 100 93 102 97 60 24 13 19 37 56 71 79 76 69 69 75 76 74 71 70 71 71 69 67 66 56 50 59 63 60 59 56 51 46 41 36 34 30 26 25 22 18 16 16 12 10 7 359 348 333
326 329 333 84 146 158 162 168 333 349 4 46 68 74 86 90 68 14 356 1 27 71 84 91 87 78 75 81 79 74 72 72 70 70 71 70 67 65 65 68 70 69 66 62 55 50 45 38 33 31 27 21 19 17 13 11 9 6 3 359 353 352 344
331 336 5 145 148 148 149 141 32 2 351 101 66 58 71 69 30 356 355 12 72 99 94 93 91 82 79 82 80 77 79 82 77 72 70 69 65 63 64 65 66 66 65 61 53 47 42 36 32 29 24 18 16 15 12 9 6 4 3 359 353 352 354
345 21 149 154 152 146 140 133 69 22 348 237 351 37 51 37 10 2 10 38 103 114 103 99 100 96 93 90 85 88 93 91 84 76 73 70 60 56 60 62 62 63 62 59 54 45 39 34 29 25 21 16 15 16 13 8 5 4 2 359 354 352 356
76 123 153 154 150 151 154 149 117 58 34 320 317 350 13 6 1 5 15 57 122 136 133 125 120 118 111 96 83 84 87 85 83 81 80 73 59 56 62 62 59 60 61 60 53 42 36 32 24 18 17 15 15 20 18 11 7 5 4 3 359 354 354
120 144 171 168 162 170 178 179 208 199 44 350 330 338 350 354 356 1 14 100 140 152 153 137 121 106 95 90 85 85 86 87 87 83 78 70 60 60 67 67 64 63 63 59 49 38 34 30 21 16 16 15 16 20 18 12 10 8 5 4 1 358 355
218 248 226 203 208 220 224 245 252 236 264 300 315 346 349 349 357 8 40 128 147 149 136 123 122 118 109 102 96 90 85 82 79 74 71 67 63 65 72 76 73 67 61 53 42 34 30 26 20 18 15 13 14 16 13 10 11 10 6 4 4 360 354
247 263 252 232 249 256 258 265 250 232 259 265 237 25 6 8 25 35 70 127 142 144 139 132 125 119 112 102 94 87 80 75 71 69 67 63 61 63 67 68 65 58 52 44 36 31 28 23 19 17 14 11 10 11 8 8 9 8 6 5 4 358 352
264 257 233 228 265 270 278 272 230 224 265 233 184 102 51 80 67 23 60 148 165 159 147 138 122 111 102 93 86 79 72 67 65 64 62 57 55 56 58 57 57 52 45 38 33 30 27 21 17 15 13 10 7 5 3 4 7 6 5 4 360 352 347
284 177 178 148 321 293 309 199 159 134 49 138 148 122 89 107 98 13 96 157 181 167 147 137 122 110 99 91 85 78 70 64 60 57 57 55 52 52 51 51 51 45 36 29 27 26 23 19 16 13 11 9 6 2 360 1 3 4 3 1 356 349 342
82 109 117 88 63 31 27 147 140 101 64 102 124 128 130 120 116 143 168 168 189 169 147 134 126 115 105 97 90 82 73 66 60 55 52 50 49 49 48 45 43 38 29 24 22 20 16 14 12 9 7 6 3 359 357 358 360 0 359 356 352 347 341
175 130 102 104 109 99 106 139 143 105 79 94 97 150 193 181 190 233 244 191 192 176 149 136 128 115 107 102 94 87 79 68 60 54 49 45 44 43 42 40 36 31 26 24 21 16 12 10 7 3 1 360 359 356 354 355 355 355 354 351 346 342 338
256 270 281 271 233 200 182 192 209 227 241 234 214 188 195 198 201 209 184 158 180 174 150 137 129 120 117 112 101 97 93 73 59 49 38 34 32 29 30 29 23 16 15 17 13 8 6 4 1 359 356 352 351 351 349 350 352 351 350 346 340 335 333
269 273 276 277 270 257 248 243 242 244 249 245 223 190 180 185 192 199 208 185 171 159 148 144 138 134 136 133 123 118 102 55 32 15 6 2 360 2 4 2 358 358 360 1 359 357 357 356 353 353 351 346 344 345 345 345 347 347 345 341 336 332 330
266 268 269 275 283 278 264 248 229 212 195 195 198 191 194 205 219 233 234 211 183 165 165 173 173 171 173 174 175 189 268 308 317 319 325 330 332 336 341 344 343 344 344 344 343 343 345 345 344 346 346 342 339 340 341 340 342 342 340 338 334 330 327